Black River Falls, WI

8:31 PM CST on February 25, 2018 (GMT -0600)
Black River Falls Area

Weather History for KBCK - November, 2014

Change the Weather History Date:

Saturday, November 22, 2014

  Actual Average (KCMY) Record (KCMY)
Temperature  
Mean Temperature 38 °F -  
Max Temperature 43 °F 38 °F 70 °F (1990)
Min Temperature 33 °F 21 °F 5 °F (1964)
Degree Days  
Heating Degree Days 27    
Moisture  
Dew Point 35 °F    
Average Humidity 93    
Maximum Humidity 100    
Minimum Humidity 66    
Precipitation  
Precipitation 0.00 in - - ()
Sea Level Pressure  
Sea Level Pressure 29.79 in    
Wind  
Wind Speed 6 mph (SSW)    
Max Wind Speed 10 mph    
Max Gust Speed 21 mph    
Visibility 4 miles    
Events Fog    
Averages and records for this station are not official NWS values.
T = Trace of Precipitation, MM = Missing Value Source: NWS Daily Summary

Daily Weather History Graph

Daily Weather History Graph

Search for Another Location

Airport or City:

Trip Planner

Search our weather history database for the weather conditions in past years. The results will help you decide how hot, cold, wet, or windy it might be!

Date:

Astronomy

Nov. 22, 2014 Rise Set
Actual Time 7:08 AM CST 4:30 PM CST
Civil Twilight 6:36 AM CST 5:02 PM CST
Nautical Twilight 6:00 AM CST 5:38 PM CST
Astronomical Twilight 5:26 AM CST 6:12 PM CST
Moon 7:03 AM CST (11/22) 5:02 PM CST (11/22)
Length of Visible Light 10h 26m
Length of Day
9h 22m
New Moon, 0% of the Moon is Illuminated
Nov 22
New Moon
Nov 29
First Quarter
Dec 6
Full
Dec 14
Last Quarter
Dec 21
New

Hourly Weather History & Observations

Time (CST) Temp. Windchill Dew Point Humidity Pressure Visibility Wind Dir Wind Speed Gust Speed Precip Events Conditions
12:15 AM 33.1 °F 24.9 °F 23.2 °F 67% 29.97 in 10.0 mi SSW 10.4 mph - N/A   Overcast
12:35 AM 33.8 °F 26.4 °F 23.5 °F 66% 29.96 in 10.0 mi SSW 9.2 mph 17.3 mph N/A   Overcast
12:55 AM 33.8 °F 27.7 °F 23.7 °F 67% 29.95 in 10.0 mi SSW 6.9 mph 16.1 mph N/A   Overcast
1:15 AM 33.8 °F 27.7 °F 24.6 °F 69% 29.95 in 10.0 mi SW 6.9 mph - N/A   Overcast
1:35 AM 33.8 °F 26.4 °F 24.8 °F 70% 29.94 in 10.0 mi SSW 9.2 mph - N/A   Overcast
1:55 AM 34.0 °F 26.0 °F 25.3 °F 71% 29.94 in 10.0 mi SSW 10.4 mph - N/A   Overcast
2:15 AM 33.8 °F 25.8 °F 25.7 °F 72% 29.93 in 10.0 mi SSW 10.4 mph 20.7 mph N/A   Overcast
2:35 AM 33.8 °F 27.7 °F 26.1 °F 73% 29.93 in 10.0 mi SSW 6.9 mph - N/A   Overcast
2:55 AM 34.0 °F 28.8 °F 26.4 °F 74% 29.92 in 10.0 mi SSW 5.8 mph - N/A   Overcast
3:15 AM 33.8 °F 27.7 °F 26.6 °F 75% 29.91 in 10.0 mi SSW 6.9 mph - N/A   Overcast
3:35 AM 33.8 °F 26.4 °F 27.5 °F 78% 29.90 in 10.0 mi SSW 9.2 mph - N/A   Overcast
3:55 AM 33.8 °F 28.6 °F 28.0 °F 79% 29.89 in 7.0 mi SSW 5.8 mph - N/A   Overcast
4:15 AM 33.8 °F 29.6 °F 28.6 °F 81% 29.89 in 7.0 mi SSW 4.6 mph - N/A   Overcast
4:35 AM 33.8 °F 29.6 °F 29.3 °F 84% 29.88 in 7.0 mi South 4.6 mph - N/A   Overcast
4:55 AM 33.8 °F 27.7 °F 30.0 °F 86% 29.87 in 5.0 mi SSW 6.9 mph - N/A   Overcast
5:15 AM 33.8 °F 28.6 °F 30.6 °F 88% 29.87 in 5.0 mi SSW 5.8 mph - N/A   Overcast
5:35 AM 34.0 °F 29.8 °F 31.1 °F 89% 29.87 in 5.0 mi SW 4.6 mph - N/A   Overcast
5:55 AM 34.0 °F 28.0 °F 31.6 °F 91% 29.86 in 4.0 mi SSW 6.9 mph - N/A   Overcast
6:20 AM 34.2 °F 30.0 °F 32.2 °F 92% 29.86 in 4.0 mi SSW 4.6 mph - N/A   Overcast
6:35 AM 34.2 °F 31.2 °F 33.8 °F 99% 29.86 in 2.5 mi SW 3.5 mph - N/A   Overcast
6:55 AM 34.0 °F 31.0 °F 34.0 °F 100% 29.86 in 1.2 mi SW 3.5 mph - N/A   Overcast
7:15 AM 34.0 °F 31.0 °F 34.0 °F 100% 29.85 in 0.8 mi SSW 3.5 mph - N/A   Overcast
7:35 AM 34.0 °F 31.0 °F 34.0 °F 100% 29.85 in 0.8 mi SW 3.5 mph - N/A   Overcast
7:55 AM 34.2 °F 31.2 °F 34.2 °F 100% 29.84 in 0.5 mi SSW 3.5 mph - N/A Fog Fog
8:15 AM 34.2 °F 31.2 °F 34.2 °F 100% 29.84 in 0.5 mi SSW 3.5 mph - N/A Fog Fog
8:35 AM 34.7 °F 30.6 °F 34.7 °F 100% 29.84 in 0.5 mi SSW 4.6 mph - N/A Fog Fog
8:55 AM 35.1 °F 30.1 °F 35.1 °F 100% 29.83 in 0.5 mi SSW 5.8 mph - N/A Fog Fog
9:15 AM 35.6 °F 31.7 °F 35.6 °F 100% 29.82 in 0.5 mi SSW 4.6 mph - N/A Fog Fog
9:35 AM 35.8 °F 33.0 °F 35.8 °F 100% 29.82 in 0.8 mi SW 3.5 mph - N/A   Overcast
9:55 AM 36.0 °F 32.1 °F 36.0 °F 100% 29.81 in 0.5 mi SW 4.6 mph - N/A Fog Fog
10:15 AM 36.1 °F 32.3 °F 36.1 °F 100% 29.81 in 0.5 mi SW 4.6 mph - N/A Fog Fog
10:35 AM 36.5 °F 32.7 °F 36.5 °F 100% 29.81 in 0.8 mi SW 4.6 mph - N/A   Overcast
10:55 AM 36.9 °F 32.2 °F 36.9 °F 100% 29.80 in 1.5 mi SW 5.8 mph - N/A   Overcast
11:15 AM 37.4 °F 32.8 °F 37.4 °F 100% 29.79 in 2.5 mi SW 5.8 mph - N/A   Overcast
11:35 AM 37.8 °F 32.5 °F 37.6 °F 99% 29.78 in 3.0 mi SSW 6.9 mph - N/A   Overcast
11:55 AM 38.3 °F 34.8 °F 37.4 °F 97% 29.78 in 3.0 mi SSW 4.6 mph - N/A   Overcast
12:15 PM 38.5 °F 33.4 °F 37.4 °F 96% 29.76 in 4.0 mi SSW 6.9 mph - N/A   Overcast
12:35 PM 38.7 °F 33.6 °F 37.6 °F 96% 29.76 in 4.0 mi SSW 6.9 mph - N/A   Overcast
12:55 PM 38.7 °F 34.3 °F 37.4 °F 95% 29.76 in 4.0 mi SW 5.8 mph - N/A   Overcast
1:15 PM 39.2 °F 35.0 °F 37.6 °F 94% 29.76 in 4.0 mi SSW 5.8 mph - N/A   Overcast
1:35 PM 39.4 °F 36.1 °F 37.8 °F 94% 29.75 in 5.0 mi SSW 4.6 mph - N/A   Overcast
1:55 PM 39.6 °F 36.3 °F 37.6 °F 93% 29.75 in 5.0 mi SSW 4.6 mph - N/A   Overcast
2:15 PM 39.6 °F 35.4 °F 37.6 °F 93% 29.74 in 5.0 mi SSW 5.8 mph - N/A   Overcast
2:35 PM 40.1 °F 36.1 °F 37.9 °F 92% 29.73 in 7.0 mi SSW 5.8 mph - N/A   Overcast
2:55 PM 40.1 °F 35.3 °F 38.3 °F 93% 29.73 in 7.0 mi SSW 6.9 mph - N/A   Overcast
3:15 PM 39.7 °F 35.6 °F 38.3 °F 95% 29.73 in 7.0 mi SSW 5.8 mph - N/A   Overcast
3:55 PM 39.4 °F 37.2 °F 38.3 °F 96% 29.73 in 7.0 mi SW 3.5 mph - N/A   Overcast
4:15 PM 39.2 °F 35.9 °F 38.5 °F 97% 29.72 in 5.0 mi SSW 4.6 mph - N/A   Overcast
4:35 PM 39.2 °F 35.9 °F 38.7 °F 98% 29.73 in 5.0 mi SSW 4.6 mph - N/A   Overcast
4:55 PM 39.0 °F 35.7 °F 38.8 °F 99% 29.73 in 5.0 mi SW 4.6 mph - N/A   Overcast
5:15 PM 38.8 °F 35.4 °F 38.7 °F 99% 29.73 in 5.0 mi SSW 4.6 mph - N/A   Overcast
5:35 PM 38.8 °F 36.5 °F 38.7 °F 99% 29.73 in 5.0 mi SW 3.5 mph - N/A   Overcast
5:55 PM 38.7 °F - 38.7 °F 100% 29.73 in 5.0 mi Calm Calm - N/A   Overcast
6:15 PM 38.7 °F - 38.7 °F 100% 29.72 in 4.0 mi Calm Calm - N/A   Overcast
6:35 PM 38.5 °F - 38.5 °F 100% 29.72 in 3.0 mi Calm Calm - N/A   Overcast
6:55 PM 38.3 °F - 38.3 °F 100% 29.72 in 1.8 mi Calm Calm - N/A   Overcast
7:15 PM 37.9 °F - 37.9 °F 100% 29.71 in 0.8 mi Calm Calm - N/A   Overcast
7:35 PM 37.8 °F - 37.8 °F 100% 29.70 in 0.2 mi Calm Calm - N/A Fog Fog
7:55 PM 38.1 °F 35.7 °F 38.1 °F 100% 29.70 in 0.2 mi ESE 3.5 mph - N/A Fog Fog
8:15 PM 38.3 °F - 38.3 °F 100% 29.69 in 0.2 mi Calm Calm - N/A Fog Fog
8:35 PM 38.1 °F - 38.1 °F 100% 29.68 in 0.2 mi Calm Calm - N/A Fog Fog
8:55 PM 38.3 °F - 38.3 °F 100% 29.68 in 0.5 mi Calm Calm - N/A Fog Fog
9:15 PM 37.9 °F - 37.9 °F 100% 29.67 in 0.5 mi Calm Calm - N/A Fog Fog
9:35 PM 37.6 °F - 37.6 °F 100% 29.66 in 0.2 mi Calm Calm - N/A Fog Fog
9:55 PM 40.1 °F - 40.1 °F 100% 29.66 in 1.5 mi Calm Calm - N/A   Overcast
10:15 PM 41.0 °F - 41.0 °F 100% 29.65 in 2.0 mi Calm Calm - N/A   Overcast
10:35 PM 41.5 °F - 41.5 °F 100% 29.65 in 2.0 mi Calm Calm - N/A   Overcast
10:55 PM 41.0 °F 39.0 °F 41.0 °F 100% 29.64 in 1.5 mi SSE 3.5 mph - N/A   Overcast
11:15 PM 43.3 °F - 43.3 °F 100% 29.64 in 1.0 mi Calm Calm - N/A   Overcast
11:35 PM 39.2 °F - 39.2 °F 100% 29.63 in 0.2 mi Calm Calm - N/A Fog Fog
11:55 PM 38.3 °F - 38.3 °F 100% 29.62 in 0.2 mi Calm Calm - N/A Fog Fog